Location: Aiyekoto
(8.4333°N, 4.3667°E)
Time: 01:54:56
(UTC+00:00)

ADEOS - Pass Details

Date: 08 October 2020
Orbit: 792 x 795 km, 98.9° (Epoch: 20 October)

Event Time Altitude Azimuth Distance (km) Brightness Sun altitude
Rises 04:27:01 0° 356° (N) 3,280 6.7 -16.4°
Reaches altitude 10° 04:29:32 10° 347° (NNW) 2,352 5.8 -15.8°
Maximum altitude 04:34:08 32° 284° (WNW) 1,320 4.2 -14.7°
Drops below altitude 10° 04:38:44 10° 222° (SW) 2,356 5.7 -13.5°
Sets 04:41:16 0° 212° (SSW) 3,286 6.5 -12.9°
